Location: Newark
(33.5333°N, 7.5833°W)
Time: 17:03:44
(UTC+00:00)

X-37B - Visible Passes

Search period start: 30 September 2020 00:00
Search period end: 10 October 2020 00:00
Orbit: 386 x 387 km, 45.0° (Epoch: 18 September)

Date Brightness Start Highest point End Pass type
(mag) Time Alt. Az. Time Alt. Az. Time Alt. Az.
30 Sep 1.0 19:26:19 10° SSW 19:29:19 41° SE 19:29:30 40° SE visible
01 Oct 2.3 20:04:17 10° WSW 20:06:26 33° WNW 20:06:26 33° WNW visible
02 Oct 0.5 19:05:32 10° WSW 19:08:42 87° NW 19:10:54 18° NE visible
03 Oct 2.4 19:44:12 10° W 19:46:53 25° NNW 19:47:32 23° N visible
04 Oct 1.6 18:45:09 10° WSW 18:48:11 42° NNW 18:51:14 10° NE visible
04 Oct 3.9 20:23:50 10° NW 20:24:02 11° NW 20:24:02 11° NW visible
05 Oct 3.1 19:24:22 10° WNW 19:26:32 17° NNW 19:28:11 12° NNE visible
06 Oct 3.7 20:04:14 10° NNW 20:04:31 10° NNW 20:04:31 10° NNW visible
07 Oct 3.3 19:04:42 10° NW 19:06:16 13° NNW 19:07:49 10° NNE visible
08 Oct 3.5 19:44:20 10° N 19:44:47 10° N 19:44:47 10° N visible
09 Oct 3.3 18:45:07 10° NNW 18:46:02 11° N 18:46:58 10° NNE visible
